Regional Weather Roundup
Issued by NWS

Current Version | Previous Version | Graphics & Text | Print | Product List | Glossary On
Versions: 1 2 3 4 5 6 7 8 9 10 11 12 13 14 15 16 17 18 19 20 21 22 23 24 25 26 27 28 29 30 31 32 33 34 35 36 37 38 39 40 41 42 43 44 45 46 47 48 49 50
000
ASHW40 PHFO 260630
RWRHI

WEATHER ROUNDUP FOR HAWAII
NATIONAL WEATHER SERVICE HONOLULU HI
800 PM HST SUN JAN 25 2015

THIS IS AN AUTOMATED REPORT THAT HAS NOT BEEN QUALITY CONTROLLED.

NOTE..."FAIR" INDICATES FEW OR NO CLOUDS BELOW 12,000 FEET WITH NO
SIGNIFICANT WEATHER AND/OR OBSTRUCTIONS TO VISIBILITY.

* - THESE SITES REPORT LIMITED FIELDS

HIZ001>004-260700-
KAUAI-NIIHAU-

CITY           SKY/WX    TMP DP  RH WIND       PRES   REMARKS
LIHUE APT      PTCLDY    71  58  63 NE16      30.06R
PORT ALLEN*      N/A     70 N/A N/A NE12G17     N/A
POIPU*           N/A     70 N/A N/A N6G13       N/A
PRINCEVILLE*     N/A     66 N/A N/A MISG        N/A
KOKOLE POINT*  NOT AVBL
MOLOAA DAIRY*  NOT AVBL
WAIMEA HTS*    NOT AVBL
PUU OPAE*      NOT AVBL
PUU LUA*       NOT AVBL
MAKAHA RIDGE*  NOT AVBL
$$

HIZ005>011-260700-
OAHU-

CITY           SKY/WX    TMP DP  RH WIND       PRES   REMARKS
HONOLULU       MOCLDY    70  62  76 N15G22    30.02R
KALAELOA       CLOUDY    69  60  73 NE8       30.03R
KANEOHE MCB    RAIN      68  64  87 VRB5      30.05R
WHEELER FIELD  FAIR      64  60  85 NW7       30.04R
BELLOWS*         N/A    N/A N/A N/A NE18        N/A
KAHUKU*          N/A    N/A N/A N/A E6          N/A
WHEELER*       NOT AVBL
WAIANAE HARBOR NOT AVBL
DILLINGHAM*      N/A     66  59  77 MISG        N/A
KAHUKU TRN*      N/A    N/A N/A N/A SE2G14      N/A
KAWAILOA*        N/A     63  59  88 E10G18      N/A
KII*             N/A     72  63  73 E14G20      N/A
MAKUA RANGE*     N/A    N/A N/A N/A E14G25      N/A
OAHU FOREST NW NOT AVBL
SCHOFIELD BRK*   N/A     64  61  88 MISG        N/A
SCHOFIELD S*   NOT AVBL
WAIANAE VLY*   NOT AVBL
KUAOKALA*      NOT AVBL
HONOULIUULI*   NOT AVBL
MOKUOLOE IS*   NOT AVBL
PALEHUA*       NOT AVBL
WAIAWA PHB*    NOT AVBL
$$

HIZ012>013-260700-
MOLOKAI-

CITY           SKY/WX    TMP DP  RH WIND       PRES   REMARKS
MOLOKAI AIRPT  MOCLDY    65  64  97 NE16      30.03R
KALAUPAPA      NOT AVBL
MAKAPULAPAI*   NOT AVBL
MOLOKAI 1*     NOT AVBL
PUU ALII*        N/A     54  54 100 E2G12       N/A
$$

HIZ016-260700-
KAHOOLAWE-

CITY           SKY/WX    TMP DP  RH WIND       PRES   REMARKS
KAHOOLAWE*     NOT AVBL
HAKIOAWA*        N/A     64  64  99 MISG      30.43R
HONOKANAIA*      N/A     69  63  82 VRB18G37  30.01R
KANELOA*         N/A     72  66  83 MISG        N/A
KEALIALALO*    NOT AVBL
LUA MAKIKA*    NOT AVBL
$$

HIZ014>015-260700-
LANAI-

CITY           SKY/WX    TMP DP  RH WIND       PRES   REMARKS
LANAI CITY     FAIR      64  64 100 NE22G31   30.04R
LANAI 1*       NOT AVBL
$$

HIZ017>028-260700-
MAUI-

CITY           SKY/WX    TMP DP  RH WIND       PRES   REMARKS
KAHULUI        CLOUDY    66  66 100 NE10      30.04R
KAPALUA-W MAUI NOT AVBL
HANA AIRPORT   LGT RAIN  66  64  94 SW5       30.08S
HANA*            N/A     68 N/A N/A SW2G8       N/A
HALEAKALA SUMM   N/A     48  10  21 NE24        N/A
MAALAEA BAY*   NOT AVBL
HALEAKALA*     NOT AVBL
KAUPO GAP*     NOT AVBL
KULA 1*          N/A     48  48 100 E3          N/A
$$

HIZ023>026-260700-
BIG ISLAND OF HAWAII COAST AND LOWER SLOPES-

CITY           SKY/WX    TMP DP  RH WIND       PRES   REMARKS
KAILUA KONA    CLOUDY    76  68  76 N8        29.94R
HILO           LGT RAIN  71  68  90 N8        30.00R
HONOKAA*       NOT AVBL
KAWAIHAE MWT*    N/A     79 N/A N/A SW2         N/A
KAWAIHAE*        N/A     79 N/A N/A S3          N/A
SOUTH POINT*     N/A     68 N/A N/A NE7         N/A
UPOLU AIRPORT*   N/A    N/A N/A N/A NE22G29     N/A
KAMUELA*       NOT AVBL
HAKALAU*         N/A     52  52 100 N5          N/A
KALOKO-HONOKO*   N/A     75  66  73 SE2       29.94R
PALI 2*          N/A     64  59  82 N14G22      N/A
KEALAKOMO*       N/A     72  68  88 NE7G18      N/A
KAUPULEHU*     NOT AVBL
KAPAPALA*        N/A     66  65  95 CALM        N/A
LOWER KAHUKU*    N/A     61  61 100 N2          N/A
PUHE CS*       NOT AVBL
PUHO CS*         N/A     76  65  70 SE1         N/A
PTA KEAMUKU*     N/A     61  57  88 CALM        N/A
WAIKOLOA*      NOT AVBL
$$

HIZ027>028-260700-
BIG ISLAND OF HAWAII INTERIOR AND SUMMMITS-

CITY           SKY/WX    TMP DP  RH WIND       PRES   REMARKS
BRADSHAW FIELD CLOUDY    54  52  92 SE6       30.27R
MK VISITOR CEN NOT AVBL
MAUNA KEA*       N/A     41   5  22 W2          N/A
MAUNA LOA*       N/A     50   9  18 MISG        N/A
MAUNA LOA 1*   NOT AVBL
PTA KIPUKA*      N/A     55  55 100 CALM        N/A
PTA RANGE 17*    N/A     57  52  82 E10G16      N/A
PTA WEST*        N/A     59  59 100 S6          N/A
NENE CABIN*      N/A    N/A N/A N/A S2          N/A
AHUMOA*        NOT AVBL
PTA PORTABLE*  NOT AVBL
PUU MALI*      NOT AVBL
$$

HIC003-260700-
NORTHWEST ISLANDS-

CITY           SKY/WX    TMP DP  RH WIND       PRES   REMARKS
MIDWAY ISLAND  MOCLDY    66  63  88 SW8       30.06S
MIDWAY NOS*    NOT AVBL
FRENCH FRIGATE NOT AVBL
$$

PHZ110>124-180-260700-
BUOY REPORTS

STATION/POSITION TIME  TEMP    WIND        PRES    WAVE   SWELL
                       AIR SEA DIR/SP/G            HT/PER HT/DIR
                 (UTC) (F)     (DEG/KT/KT) (MB)    (FT/S) (FT/D)
BUOY 51001       NOT AVBL
BUOY 51101       0600   69 73   50/ 12/ 16 1018.9R  10/13  10/310
BUOY 51100       NOT AVBL
BUOY 51003       0600   73 78   80/ 12/ 17 1015.1R  10/13  10
BUOY 51004       0548   76 78   60/ 10/ 12 1013.5R   9/15   8/320
BARBERS PT BUOY  NOT AVBL
WAIMEA BAY BUOY  0600      75                N/A     7/14   5/310
KAILUA BAY BUOY  0600      76                N/A     7/ 7   2/340
LANAI BUOY       0600      77                N/A     4/13   3/290
BARBERS PT 2     0600      77                N/A     6/14   5/290
PAUWELA MAUI     0600      76                N/A    10/14   7/320
HILO             0600      77                N/A    10/13
KANEOHE BAY BUOY 0600      75                N/A     6/ 6   2/340
HANALEI KAUAI    NOT AVBL
KAHULUI HARBOR   0600   69 76   30/  7/ 14 1017.3R
HONOLULU HARBOR  0600   71 75  120/  6/ 13 1016.1R
KILO NALU        NOT AVBL
HILO HARBOR      0600   71      20/ 18/ 21 1015.5R
MOKUOLOE         0600      75              1017.5R
NAWILIWILI       0600      75                N/A
WHOTS BUOY       NOT AVBL
BUOY 51028       NOT AVBL
$$

......................KEY........................................
  SKY/WX - SKY CONDITIONS/PRESENT WEATHER
  TMP    - TEMPERATURE IN FAHRENHEIT
  DWPT   - DEWPOINT IN FAHRENHEIT
  RH     - RELATIVE HUMIDITY IN PERCENT
  WIND   - DIRECTION AND SPEED /MPH FOR ISLANDS...KTS FOR BUOYS/
  PRES   - MEAN SEA LEVEL PRESSURE IN INCHES OF HG
  VSB    - VISIBILITY IN MILES
  HX     - HEAT INDEX
  WCI    - WIND CHILL INDEX
  VRB    - VARIABLE WIND DIRECTION
  N/A    - NOT AVAILABLE


USA.gov is the U.S. government's official web portal to all federal, state and local government web resources and services.